[[{"header":{"parameterUnit":"m.s-1","parameterCategory":1,"la1":30.2991,"la2":30.254,"lo1":-89.0895,"lo2":-89.0444,"dy":0.0017,"dx":0.0017,"nx":28,"ny":28,"refTime":"2025-08-24T09:00:00:Z","depth":0,"parameterNumber":2,"parameterNumberName":"U-component_of_WINDS"},"data":[0,0,0,0,0,0,0,0,0,0,0,0,0,0,0,0,0,0,0,0,0,0,0,0,0,0,0,0,0,0,0,0,0,0,0,0,0,0,0,0,0,0,0,0,0,0,0,0,0,0,0,0,0,0,0,0,0,0,1.2783,1.2783,0,1.2837,1.2838,1.2839,1.2829,1.2828,1.2827,1.2826,1.2882,1.2884,1.2887,0,0,0,0,0,0,0,0,0,0,0,0,0,1.2668,1.267,1.2783,1.2783,1.2784,1.2837,1.2838,1.2839,1.2829,1.2828,1.2827,1.2826,1.2881,1.2884,1.2887,0,0,0,0,0,0,0,0,0,0,0,0,0,1.272,1.2671,1.2782,1.2786,1.2786,1.2837,1.2838,1.2839,1.283,1.2828,1.2827,1.2825,1.288,1.2884,1.2887,1.2938,0,0,1.2898,1.29,0,0,0,0,0,0,0,0,1.2717,1.2724,1.2785,1.2786,1.2787,1.2825,1.2818,1.2872,1.283,1.2813,1.2826,1.2825,1.2864,1.2869,1.2882,1.2941,1.2943,1.2898,1.2901,1.2902,1.2903,0,0,0,0,0,0,0,1.2713,1.2722,1.2804,1.2785,1.2787,1.2784,1.279,1.2828,1.2846,1.2815,1.2814,1.2821,1.2864,1.2879,1.2884,1.2944,1.2898,1.2901,1.2904,1.2905,1.3045,1.3047,0,0,0,0,0,0,1.2709,1.2719,1.2802,1.2806,1.2748,1.2787,1.2794,1.2814,1.2846,1.2849,1.2822,1.282,1.2874,1.2879,1.2885,1.2946,1.2902,1.2905,1.2907,1.3043,1.3045,1.3047,0,0,0,0,0,0,1.2707,1.2717,1.28,1.2762,1.2773,1.2791,1.2814,1.2816,1.283,1.2851,1.2854,1.2833,1.2873,1.288,1.2925,1.2948,1.2907,1.291,1.3042,1.3044,1.3046,1.3068,0,0,0,0,0,0,1.2703,1.2716,1.2736,1.2763,1.2775,1.2839,1.2815,1.2818,1.2837,1.2835,1.2863,1.2866,1.2872,1.2919,1.2928,1.2952,1.2913,1.304,1.3043,1.3046,1.3065,1.3071,1.3075,0,0,0,0,0,1.2699,1.274,1.2737,1.2747,1.28,1.284,1.2847,1.2853,1.2839,1.2858,1.2871,1.2865,1.2944,1.2924,1.2934,1.2959,1.3038,1.3042,1.3045,1.3063,1.307,1.3075,0,0,0,0,0,0,1.2714,1.2743,1.274,1.2791,1.2813,1.2839,1.2864,1.2861,1.2888,1.2885,1.2891,1.2898,1.2942,1.2955,1.2932,1.3009,1.2989,1.2995,1.2999,1.3005,1.301,1.3006,1.2916,0,0,0,0,0,1.2724,1.2754,1.2778,1.282,1.2831,1.2846,1.2863,1.2866,1.289,1.2899,1.2916,1.2938,1.2968,1.2988,1.3016,1.3067,1.3073,1.3089,1.3094,1.3098,1.3103,1.313,1.3137,1.3059,1.3059,1.3059,0,0,1.2743,1.2762,1.2781,1.2823,1.2841,1.2872,1.2854,1.2888,1.291,1.2904,1.2947,1.296,1.2986,1.3033,1.3055,1.3045,1.3126,1.3103,1.3106,1.3108,1.3134,1.3142,1.3148,1.3061,1.3061,1.306,0,0,1.2793,1.2812,1.2848,1.2867,1.2894,1.2903,1.2912,1.2938,1.2946,1.2989,1.2985,1.3012,1.3064,1.3082,1.3098,1.3155,1.315,1.3164,1.3191,1.3217,1.3223,1.3228,1.3248,1.3255,1.3169,1.3169,1.3169,0,1.2814,1.2861,1.2867,1.2902,1.292,1.2916,1.2952,1.297,1.3005,1.3017,1.3006,1.307,1.3087,1.3138,1.3152,1.3166,1.3175,1.3161,1.3221,1.3227,1.3232,1.3251,1.3258,1.317,1.317,1.317,1.317,0,1.2884,1.2916,1.2943,1.2977,1.2998,1.3033,1.3044,1.3065,1.3066,1.3076,1.312,1.314,1.3172,1.3185,1.3186,1.3236,1.3229,1.322,1.32,1.3241,1.3259,1.3266,1.3173,1.3172,1.3172,1.3171,0,0,1.2945,1.2982,1.2991,1.3006,1.3036,1.3061,1.3096,1.3128,1.3145,1.3169,1.3198,1.3241,1.3232,1.3251,1.3254,1.3277,1.332,1.3265,1.3266,1.3274,1.3375,1.3381,1.3389,1.3317,1.3319,1.332,1.3372,0,1.2997,1.3059,1.3066,1.312,1.315,1.3147,1.3177,1.3198,1.3209,1.3235,1.3247,1.3277,1.3264,1.3274,1.3297,1.331,1.334,1.3306,1.3343,1.3345,1.3336,1.3399,1.3405,1.3454,1.3379,1.3381,1.3381,0,1.3066,1.3093,1.315,1.3175,1.3188,1.3215,1.3244,1.327,1.3294,1.3299,1.332,1.332,1.3355,1.3335,1.3383,1.336,1.3375,1.3384,1.3386,1.3389,1.3365,1.3402,1.347,1.3477,1.3393,1.3392,1.3391,0,1.3103,1.3153,1.3194,1.3207,1.3238,1.3256,1.327,1.3292,1.3311,1.3336,1.3348,1.3378,1.3394,1.3416,1.3424,1.3408,1.3472,1.3452,1.3477,1.3477,1.349,1.3489,1.356,1.3502,1.3502,1.3502,1.3501,0,1.316,1.3195,1.3211,1.3236,1.3275,1.3282,1.3321,1.3333,1.3353,1.338,1.338,1.3405,1.3415,1.3441,1.3448,1.3487,1.3494,1.3499,1.3501,1.3499,1.3498,1.3508,1.3505,1.3504,1.3503,1.3503,1.3502,0,1.3208,1.322,1.3264,1.3289,1.3296,1.3324,1.3345,1.3369,1.3379,1.3413,1.3422,1.3438,1.3469,1.348,1.3518,1.3523,1.3567,1.3566,1.3559,1.3559,1.3583,1.358,1.3663,1.3674,1.3609,1.361,1.361,0,1.3243,1.327,1.3298,1.3316,1.333,1.336,1.3378,1.3387,1.3406,1.3435,1.3455,1.3487,1.3512,1.3562,1.3577,1.3606,1.3605,1.3632,1.3609,1.3606,1.3604,1.3602,1.3604,1.3636,1.3636,1.3637,1.3637,0,1.3303,1.3308,1.3335,1.3364,1.3387,1.341,1.3433,1.3448,1.3459,1.3481,1.3513,1.3533,1.3572,1.3603,1.3632,1.3646,1.3643,1.3644,1.3652,1.365,1.3644,1.3646,1.3569,1.3642,1.3642,1.3641,1.3641,1.3641,1.3344,1.3368,1.3391,1.3422,1.344,1.3461,1.3484,1.3498,1.3525,1.3557,1.356,1.3595,1.3618,1.3657,1.3672,1.3699,1.3691,1.3702,1.3705,1.3707,1.3708,1.3641,1.3705,1.3704,1.3704,1.3704,1.3704,0,1.3404,1.3419,1.3447,1.3478,1.3502,1.3498,1.3523,1.3543,1.3573,1.3595,1.362,1.3657,1.3686,1.3704,1.3734,1.3752,1.3751,1.3759,1.3757,1.376,1.3714,1.3704,1.3759,1.3759,1.3759,1.3759,1.3759,1.3759,1.3437,1.3476,1.3484,1.3532,1.3547,1.358,1.3595,1.3614,1.3631,1.3672,1.3697,1.3708,1.3728,1.376,1.3787,1.3791,1.3801,1.381,1.3813,1.3769,1.3764,1.3758,1.3749,1.3812,1.3813,1.3858,1.3858,1.3858]},{"header":{"parameterUnit":"m.s-1","parameterCategory":1,"la1":30.2991,"la2":30.254,"lo1":-89.0895,"lo2":-89.0444,"dy":0.0017,"dx":0.0017,"nx":28,"ny":28,"refTime":"2025-08-24T09:00:00:Z","depth":0,"parameterNumber":3,"parameterNumberName":"V-component_of_WINDS"},"data":[0,0,0,0,0,0,0,0,0,0,0,0,0,0,0,0,0,0,0,0,0,0,0,0,0,0,0,0,0,0,0,0,0,0,0,0,0,0,0,0,0,0,0,0,0,0,0,0,0,0,0,0,0,0,0,0,0,0,4.4071,4.4071,0,4.4022,4.4022,4.4021,4.3935,4.3933,4.3931,4.393,4.3881,4.3881,4.3882,0,0,0,0,0,0,0,0,0,0,0,0,0,4.4091,4.4091,4.4071,4.4071,4.407,4.4022,4.4022,4.4021,4.3935,4.3933,4.3931,4.3929,4.3881,4.3881,4.3882,0,0,0,0,0,0,0,0,0,0,0,0,0,4.4067,4.4091,4.4071,4.4021,4.4016,4.4022,4.4022,4.4021,4.3935,4.3933,4.393,4.3928,4.3881,4.3881,4.3882,4.3933,0,0,4.3883,4.3883,0,0,0,0,0,0,0,0,4.4068,4.4066,4.4029,4.4025,4.4019,4.3982,4.4011,4.3991,4.3936,4.3966,4.393,4.3927,4.3917,4.3914,4.391,4.3931,4.3929,4.3883,4.3883,4.3883,4.3883,0,0,0,0,0,0,0,4.407,4.4068,4.4052,4.4029,4.4023,4.4002,4.3995,4.4007,4.3956,4.3963,4.3957,4.3952,4.3914,4.391,4.3908,4.3928,4.3883,4.3883,4.3883,4.3883,4.3987,4.3989,0,0,0,0,0,0,4.4079,4.407,4.4053,4.405,4.4038,4.4003,4.3996,4.3996,4.3956,4.3947,4.3954,4.3948,4.3911,4.3908,4.3906,4.3963,4.3883,4.3883,4.3884,4.3984,4.3987,4.399,0,0,0,0,0,0,4.408,4.4078,4.4055,4.4058,4.4054,4.4006,4.4006,4.3997,4.3993,4.3949,4.3939,4.396,4.3909,4.3906,4.3927,4.396,4.3884,4.3884,4.3981,4.3985,4.3989,4.4077,0,0,0,0,0,0,4.4081,4.4079,4.4098,4.4059,4.4054,4.4077,4.4009,4.3998,4.3994,4.3986,4.3952,4.3944,4.3907,4.3927,4.3927,4.3959,4.3884,4.3978,4.3983,4.3987,4.4071,4.4083,4.4094,0,0,0,0,0,4.4082,4.4125,4.4099,4.4098,4.4076,4.4079,4.4075,4.4031,4.3997,4.4015,4.3987,4.3945,4.3957,4.3929,4.3929,4.3962,4.3976,4.3982,4.3987,4.4066,4.4081,4.4094,0,0,0,0,0,0,4.4169,4.4119,4.409,4.4122,4.4105,4.4064,4.4086,4.4049,4.4042,4.4034,4.3981,4.3974,4.4001,4.3984,4.3954,4.4009,4.3959,4.3965,4.4019,4.4033,4.4045,4.4048,4.3884,0,0,0,0,0,4.4193,4.4198,4.4154,4.4187,4.418,4.4135,4.4134,4.4101,4.4082,4.4074,4.4047,4.403,4.403,4.4031,4.4028,4.4068,4.4059,4.409,4.4102,4.4112,4.4117,4.4136,4.4149,4.4009,4.4009,4.4009,0,0,4.424,4.4214,4.422,4.4204,4.4187,4.4194,4.4129,4.414,4.4144,4.4076,4.4093,4.4073,4.405,4.4081,4.4093,4.4067,4.4154,4.4119,4.4127,4.4127,4.4143,4.4157,4.4168,4.4013,4.4012,4.4011,0,0,4.4331,4.4312,4.4336,4.432,4.4295,4.4265,4.4271,4.4235,4.4219,4.4235,4.4184,4.4189,4.419,4.4175,4.4168,4.4253,4.4214,4.4254,4.4314,4.4333,4.4344,4.4354,4.4383,4.4394,4.426,4.426,4.426,0,4.4393,4.4401,4.4354,4.4367,4.4361,4.4299,4.4323,4.4311,4.4287,4.4284,4.4255,4.4254,4.4235,4.426,4.4281,4.4278,4.4282,4.4257,4.4346,4.4355,4.4364,4.4391,4.4402,4.4265,4.4264,4.4264,4.4263,0,4.4479,4.4486,4.4509,4.4486,4.4483,4.4502,4.4457,4.446,4.4428,4.44,4.4418,4.4392,4.4383,4.4387,4.4356,4.4408,4.4392,4.4356,4.4305,4.4383,4.4407,4.4418,4.4272,4.427,4.4269,4.4267,0,0,4.4623,4.4573,4.4582,4.4571,4.4539,4.4543,4.456,4.455,4.4552,4.4538,4.455,4.4552,4.4518,4.451,4.4477,4.4494,4.4561,4.4455,4.4453,4.4475,4.4616,4.4643,4.4656,4.4535,4.4537,4.4539,4.4618,0,4.4706,4.473,4.4687,4.4722,4.4727,4.4668,4.4682,4.4664,4.4639,4.464,4.4613,4.4615,4.457,4.4564,4.4579,4.455,4.4589,4.4544,4.4546,4.4546,4.4552,4.4669,4.4698,4.4773,4.4627,4.4629,4.463,0,4.4805,4.4795,4.483,4.4795,4.4795,4.4809,4.4796,4.4798,4.4776,4.4757,4.4748,4.4709,4.4722,4.4674,4.4691,4.4662,4.466,4.4646,4.4648,4.4646,4.4592,4.4669,4.4797,4.4808,4.4645,4.4644,4.4643,0,4.4905,4.49,4.492,4.4912,4.4872,4.4883,4.4867,4.4843,4.484,4.4829,4.4826,4.4817,4.4812,4.4807,4.4766,4.4735,4.4788,4.4737,4.4772,4.4773,4.4785,4.4785,4.4913,4.4786,4.4786,4.4786,4.4785,0,4.5001,4.5025,4.4964,4.4976,4.5001,4.4952,4.4978,4.4956,4.4935,4.4941,4.4891,4.4898,4.4845,4.4847,4.4815,4.4834,4.4833,4.4817,4.4808,4.4821,4.4823,4.4819,4.4812,4.4789,4.4788,4.4787,4.4787,0,4.5117,4.5077,4.5095,4.5056,4.5046,4.5066,4.5032,4.5042,4.5014,4.5023,4.5023,4.4979,4.4978,4.4937,4.4929,4.4907,4.4939,4.4921,4.4946,4.494,4.4978,4.4975,4.5107,4.5122,4.4986,4.4988,4.4989,0,4.518,4.5196,4.5159,4.516,4.5146,4.5148,4.5144,4.5097,4.5095,4.5072,4.5084,4.5079,4.5073,4.5075,4.5042,4.5035,4.5016,4.5063,4.5014,4.5027,4.5015,4.5015,4.5016,4.5073,4.5075,4.5076,4.5077,0,4.5296,4.5276,4.5272,4.5262,4.5259,4.5249,4.5235,4.5239,4.5187,4.5188,4.5186,4.5181,4.5172,4.5168,4.5154,4.5138,4.5099,4.5093,4.51,4.5113,4.5127,4.5119,4.4973,4.509,4.5088,4.5088,4.5087,4.5086,4.5387,4.5398,4.5374,4.5371,4.5356,4.5345,4.5352,4.5324,4.5322,4.5311,4.5283,4.5286,4.5264,4.5242,4.5229,4.523,4.5206,4.5218,4.5221,4.5224,4.5231,4.5127,4.5228,4.5227,4.5227,4.5227,4.5226,0,4.5499,4.5481,4.5479,4.5462,4.546,4.5423,4.5407,4.5408,4.5411,4.5393,4.5388,4.5386,4.5381,4.5349,4.534,4.5348,4.533,4.5347,4.5346,4.5343,4.5253,4.5247,4.5362,4.5362,4.5362,4.5362,4.5362,4.5362,4.5558,4.5576,4.5553,4.5562,4.5543,4.5545,4.5539,4.5528,4.5513,4.5514,4.551,4.5488,4.5464,4.5454,4.5448,4.5438,4.5438,4.5461,4.5445,4.5362,4.5349,4.5336,4.533,4.5461,4.5461,4.5535,4.5535,4.5536]}]]